Weather reports worldwide

Advertisment
S. Maria Di Leuca, Italy (16360): temperature & dewpoint: 10.11.2018 05:00:00 - 16.11.2018 05:00:00 (CET)S. Maria Di Leuca, Italy (16360): wind speed: 10.11.2018 05:00:00 - 16.11.2018 05:00:00 (CET)S. Maria Di Leuca, Italy (16360): wind direction: 10.11.2018 05:00:00 - 16.11.2018 05:00:00 (CET)S. Maria Di Leuca, Italy (16360): reduced air pressure: 10.11.2018 05:00:00 - 16.11.2018 05:00:00 (CET)S. Maria Di Leuca, Italy (16360): visibility: 10.11.2018 05:00:00 - 16.11.2018 05:00:00 (CET)S. Maria Di Leuca, Italy (16360): sunshine duration: 10.11.2018 05:00:00 - 16.11.2018 05:00:00 (CET)
Date & Time tt [°C] td [°C] ff [km/h] ff [kn] dd ppp [hPa] vv [km] sd [min]
16.11.2018 05:00:00 13,2 8,5 18 10 N 1017,5 10 -
16.11.2018 04:00:00 14,8 10,2 21 11 N 1017,4 10 -
16.11.2018 03:00:00 14,8 11,2 18 10 NNE 1017,4 10 -
16.11.2018 02:00:00 14,8 11,2 21 11 NNE 1017,4 10 -
16.11.2018 01:00:00 14,8 11,2 21 11 N 1017,5 10 -
16.11.2018 00:00:00 14,8 10,8 16 9 NNE 1017,6 10 -
15.11.2018 23:00:00 14,8 9,8 18 10 NNE 1017,7 10 -
15.11.2018 22:00:00 14,8 9,2 18 10 N 1018,3 10 -
15.11.2018 21:00:00 15,0 9,1 16 9 N 1018,4 10 -
15.11.2018 20:00:00 14,8 8,7 16 9 N 1018,5 10 -
15.11.2018 19:00:00 14,8 7,6 16 9 N 1018,9 15 -
15.11.2018 18:00:00 15,0 7,1 13 7 NNW 1018,9 15 -
15.11.2018 17:00:00 15,4 5,9 16 9 N 1018,9 15 18
15.11.2018 16:00:00 16,4 2,1 18 10 N 1018,8 20 60
15.11.2018 15:00:00 16,8 4,2 26 14 N 1019,2 20 60
15.11.2018 14:00:00 17,4 3,7 26 14 N 1019,3 20 60
15.11.2018 13:00:00 17,6 3,9 24 13 N 1019,5 20 0
15.11.2018 12:00:00 17,4 4,7 22 12 N 1020,3 20 60
15.11.2018 11:00:00 17,4 8,5 21 11 N 1020,4 20 60
15.11.2018 10:00:00 17,4 10,8 16 9 N 1020,4 20 60
15.11.2018 09:00:00 15,8 11,4 11 6 N 1020,2 15 60
15.11.2018 08:00:00 15,4 11,2 18 10 N 1020,2 15 60
15.11.2018 07:00:00 15,2 11,2 21 11 N 1019,6 10 0
15.11.2018 06:00:00 15,2 11,2 22 12 N 1019,4 10 0
15.11.2018 05:00:00 - - - - - - - -
15.11.2018 04:00:00 15,2 10,8 24 13 N 1019,9 10 -
15.11.2018 03:00:00 15,2 10,8 26 14 N 1019,9 10 -
15.11.2018 02:00:00 15,4 11,0 26 14 N 1020,4 10 -
15.11.2018 01:00:00 16,0 12,0 24 13 N 1021,4 10 -
15.11.2018 00:00:00 16,0 12,0 26 14 N 1021,4 10 -
14.11.2018 23:00:00 16,0 12,0 24 13 N 1021,4 10 -
14.11.2018 22:00:00 16,0 12,0 21 11 N 1021,4 10 -
14.11.2018 21:00:00 15,8 11,8 24 13 N 1021,4 10 -
14.11.2018 20:00:00 16,0 12,0 24 13 N 1021,4 10 -
14.11.2018 19:00:00 16,0 12,0 28 15 N 1021,4 10 -
14.11.2018 18:00:00 16,2 12,5 21 11 N 1021,4 10 -
14.11.2018 17:00:00 16,8 14,4 16 9 NNW 1021,4 10 54
14.11.2018 16:00:00 17,6 14,9 15 8 NNW 1021,4 10 60
14.11.2018 15:00:00 18,0 14,1 16 9 NNW 1021,5 10 48
14.11.2018 14:00:00 18,0 13,7 18 10 N 1022,4 10 48
14.11.2018 13:00:00 17,8 14,1 16 9 N 1022,4 10 60
14.11.2018 12:00:00 18,0 14,5 22 12 N 1022,4 10 60
14.11.2018 11:00:00 17,0 13,5 21 11 N 1022,5 10 60
14.11.2018 10:00:00 17,0 13,1 21 11 N 1023,4 10 60
14.11.2018 09:00:00 15,8 14,5 16 9 NNW 1023,4 6 48
14.11.2018 08:00:00 15,6 14,3 16 9 NNW 1023,5 5 0
14.11.2018 07:00:00 15,0 10,6 21 11 N 1023,3 6 0
14.11.2018 06:00:00 15,0 10,6 15 8 NNW 1023,3 10 -
14.11.2018 05:00:00 15,6 11,2 13 7 N 1023,2 10 -
14.11.2018 04:00:00 15,0 10,6 11 6 N 1023,5 10 -
14.11.2018 03:00:00 15,0 10,8 11 6 N 1023,5 10 -
14.11.2018 02:00:00 15,0 11,0 13 7 N 1023,9 10 -
14.11.2018 01:00:00 15,0 11,0 11 6 N 1024,1 10 -
14.11.2018 00:00:00 15,0 10,4 13 7 N 1024,3 10 -
13.11.2018 23:00:00 15,0 10,8 15 8 N 1024,8 10 -
13.11.2018 22:00:00 15,4 11,4 16 9 N 1025,2 10 -
13.11.2018 21:00:00 15,4 11,6 15 8 N 1025,2 10 -
13.11.2018 20:00:00 15,6 11,6 15 8 N 1025,1 10 -
13.11.2018 19:00:00 15,6 11,6 13 7 NNE 1025,1 10 -
13.11.2018 18:00:00 16,0 12,9 13 7 NNE 1024,9 10 -
13.11.2018 17:00:00 16,4 14,2 11 6 N 1024,4 10 18
13.11.2018 16:00:00 17,4 14,5 9 5 N 1024,4 10 60
13.11.2018 15:00:00 17,8 15,2 15 8 ENE 1024,5 10 60
13.11.2018 14:00:00 18,2 15,3 13 7 ENE 1025,0 10 60
13.11.2018 13:00:00 18,2 9,8 11 6 NNE 1025,3 10 60
13.11.2018 12:00:00 18,0 10,1 11 6 N 1025,8 10 60
13.11.2018 11:00:00 18,0 12,5 11 6 N 1026,1 10 60
13.11.2018 10:00:00 17,2 12,9 11 6 NNW 1026,4 10 60
13.11.2018 09:00:00 16,2 12,0 11 6 N 1025,4 10 60
13.11.2018 08:00:00 15,0 11,0 11 6 N 1025,5 10 30
13.11.2018 07:00:00 15,0 10,8 13 7 N 1025,7 10 0
13.11.2018 06:00:00 15,0 10,8 13 7 N 1025,6 10 -
13.11.2018 05:00:00 - - - - - - - -
13.11.2018 04:00:00 15,0 10,8 13 7 N 1025,6 10 -
13.11.2018 03:00:00 15,0 10,8 13 7 N 1025,6 10 -
13.11.2018 02:00:00 15,0 10,8 13 7 N 1025,6 10 -
13.11.2018 01:00:00 15,2 11,2 15 8 N 1025,6 10 -
13.11.2018 00:00:00 15,2 11,2 13 7 N 1025,6 10 -
12.11.2018 23:00:00 15,2 11,6 13 7 NNE 1025,6 10 -
12.11.2018 22:00:00 15,4 13,3 11 6 NNE 1025,6 4,0 -
12.11.2018 21:00:00 16,0 13,8 18 10 N 1025,5 10 -
12.11.2018 20:00:00 17,0 14,8 11 6 N 1025,3 10 -
12.11.2018 19:00:00 17,0 14,8 13 7 N 1025,2 15 -
12.11.2018 18:00:00 18,0 15,2 8 4 N 1024,8 15 -
12.11.2018 17:00:00 18,0 16,0 5 3 NNE 1024,8 20 0
12.11.2018 16:00:00 19,0 16,8 5 3 ENE 1024,7 20 60
12.11.2018 15:00:00 19,6 17,0 11 6 NE 1024,7 20 60
12.11.2018 14:00:00 19,8 16,8 8 4 NE 1024,7 20 60
12.11.2018 13:00:00 19,8 15,3 9 5 NE 1025,1 20 60
12.11.2018 12:00:00 19,4 13,8 13 7 ENE 1025,3 20 60
12.11.2018 11:00:00 22,0 16,3 13 7 NNE 1025,2 20 60
12.11.2018 10:00:00 18,8 13,2 15 8 NNE 1025,1 20 60
12.11.2018 09:00:00 16,6 12,8 11 6 NNE 1024,7 20 60
12.11.2018 08:00:00 15,8 12,5 13 7 N 1024,5 20 60
12.11.2018 07:00:00 15,0 12,5 15 8 NNE 1023,9 20 12
12.11.2018 06:00:00 15,2 12,9 13 7 N 1023,5 15 -
12.11.2018 05:00:00 16,0 12,4 11 6 N 1023,4 10 -
12.11.2018 04:00:00 15,4 13,1 11 6 N 1023,3 10 -
12.11.2018 03:00:00 15,4 13,6 9 5 N 1023,1 10 -
12.11.2018 02:00:00 16,0 13,7 11 6 N 1022,8 10 -
12.11.2018 01:00:00 16,2 13,1 11 6 N 1022,8 10 -
12.11.2018 00:00:00 16,2 14,2 9 5 N 1022,8 10 -
11.11.2018 23:00:00 16,4 14,4 9 5 N 1022,7 10 -
11.11.2018 22:00:00 16,6 13,1 4 2 N 1022,7 10 -
11.11.2018 21:00:00 16,6 14,2 5 3 NNE 1022,7 10 -
11.11.2018 20:00:00 16,8 14,6 5 3 NE 1022,7 10 -
11.11.2018 19:00:00 16,8 14,4 8 4 NE 1021,4 10 -
11.11.2018 18:00:00 17,8 13,9 4 2 E 1021,3 10 -
11.11.2018 17:00:00 18,2 13,9 4 2 E 1021,0 10 12
11.11.2018 16:00:00 18,6 14,1 8 4 ESE 1020,9 10 60
11.11.2018 15:00:00 18,8 14,3 8 4 ESE 1020,7 10 60
11.11.2018 14:00:00 18,6 14,1 9 5 SE 1020,1 10 60
11.11.2018 13:00:00 18,6 14,1 9 5 SE 1020,0 10 60
11.11.2018 12:00:00 18,0 13,5 11 6 SSE 1020,0 10 60
11.11.2018 11:00:00 18,0 13,5 8 4 SSE 1020,0 10 60
11.11.2018 10:00:00 18,0 13,5 9 5 SE 1019,8 10 60
11.11.2018 09:00:00 18,0 13,5 8 4 SE 1019,5 10 60
11.11.2018 08:00:00 17,2 13,5 5 3 ESE 1019,4 10 30
11.11.2018 07:00:00 17,0 13,0 5 3 ESE 1019,2 10 0
11.11.2018 06:00:00 17,0 13,3 5 3 E 1018,6 10 0
11.11.2018 05:00:00 - - - - - - - -
11.11.2018 04:00:00 16,8 13,5 8 4 ESE 1018,3 10 -
11.11.2018 03:00:00 16,8 13,7 5 3 ESE 1018,3 10 -
11.11.2018 02:00:00 16,8 13,7 8 4 ESE 1018,3 10 -
11.11.2018 01:00:00 16,8 13,9 4 2 ENE 1018,3 10 -
11.11.2018 00:00:00 16,8 13,9 5 3 ENE 1018,3 10 -
10.11.2018 23:00:00 17,0 14,1 4 2 ESE 1018,3 10 -
10.11.2018 22:00:00 17,0 13,9 5 3 SSE 1017,9 10 -
10.11.2018 21:00:00 17,2 12,7 5 3 SSE 1017,3 10 -
10.11.2018 20:00:00 17,2 12,3 9 5 S 1017,3 10 -
10.11.2018 19:00:00 17,4 12,7 8 4 S 1016,8 10 -
10.11.2018 18:00:00 17,6 13,1 9 5 SSE 1016,6 12 -
10.11.2018 17:00:00 17,8 12,7 9 5 SSE 1016,5 12 24
10.11.2018 16:00:00 18,0 12,2 8 4 S 1016,5 10 60
10.11.2018 15:00:00 18,4 12,2 8 4 SSE 1016,5 15 60
10.11.2018 14:00:00 18,8 13,2 11 6 SE 1016,6 15 60
10.11.2018 13:00:00 18,6 13,3 11 6 SSE 1017,1 15 60
10.11.2018 12:00:00 18,4 13,5 13 7 SE 1017,3 12 24
10.11.2018 11:00:00 17,4 13,5 9 5 ENE 1017,5 12 24
10.11.2018 10:00:00 17,4 13,5 9 5 ENE 1017,5 10 0
10.11.2018 09:00:00 16,2 12,7 9 5 NE 1017,6 10 0
10.11.2018 08:00:00 15,8 14,2 13 7 NE 1017,6 10 0
10.11.2018 07:00:00 15,2 14,1 13 7 NE 1017,5 8 0
10.11.2018 06:00:00 15,0 14,0 9 5 NNE 1017,5 7 0
10.11.2018 05:00:00 15,2 13,9 9 5 N 1017,5 10 -

tt = temperature
td = dewpoint
ff = wind speed
dd = wind direction
ppp = reduced air pressure
vv = visibility
sd = sunshine duration

Next stations